| time (UTC) | temp F | wind direction | speed MPH | gust MPH | rain 1hr in | rain 24hr in | rain mn in | humidity % | barometer mb |
| 20260504204221 | 0 | 196 | 2.0 | 5.0 | 0.00 | 0.04 | 0.04 | 70 | 1015.7 |
| 20260504203658 | 0 | 163 | 1.0 | 6.0 | 0.00 | 0.04 | 0.04 | 71 | 1015.9 |
| 20260504203134 | 0 | 15 | 2.0 | 6.0 | 0.00 | 0.04 | 0.04 | 71 | 1015.8 |
| 20260504202612 | 0 | 184 | 0.0 | 6.0 | 0.00 | 0.04 | 0.04 | 75 | 1015.8 |
| 20260504202049 | 0 | 141 | 2.0 | 4.0 | 0.00 | 0.04 | 0.04 | 75 | 1015.7 |
| 20260504201526 | 0 | 284 | 1.0 | 5.0 | 0.00 | 0.04 | 0.04 | 75 | 1015.7 |
| 20260504201002 | 0 | 121 | 1.0 | 5.0 | 0.00 | 0.04 | 0.04 | 72 | 1015.9 |
| 20260504200439 | 0 | 86 | 0.0 | 5.0 | 0.00 | 0.04 | 0.04 | 72 | 1015.7 |
| 20260504195916 | 0 | 18 | 0.0 | 5.0 | 0.00 | 0.04 | 0.04 | 71 | 1015.5 |
| 20260504195355 | 0 | 32 | 1.0 | 5.0 | 0.00 | 0.04 | 0.04 | 67 | 1015.5 |
| 20260504194831 | 0 | 197 | 0.0 | 6.0 | 0.00 | 0.04 | 0.04 | 71 | 1015.5 |
| 20260504194307 | 0 | 141 | 1.0 | 6.0 | 0.00 | 0.04 | 0.04 | 71 | 1015.4 |
| 20260504193744 | 0 | 175 | 0.0 | 6.0 | 0.00 | 0.04 | 0.04 | 74 | 1015.5 |
| 20260504193222 | 0 | 53 | 2.0 | 5.0 | 0.00 | 0.04 | 0.04 | 77 | 1015.2 |
| 20260504192659 | 0 | 200 | 1.0 | 5.0 | 0.00 | 0.04 | 0.04 | 80 | 1015.5 |
| 20260504192136 | 0 | 187 | 0.0 | 8.0 | 0.00 | 0.04 | 0.04 | 76 | 1015.6 |
| 20260504191612 | 0 | 197 | 2.0 | 8.0 | 0.00 | 0.04 | 0.04 | 76 | 1015.8 |
| 20260504191049 | 0 | 120 | 2.0 | 8.0 | 0.00 | 0.04 | 0.04 | 76 | 1015.8 |
| 20260504190526 | 0 | 193 | 2.0 | 5.0 | 0.00 | 0.04 | 0.04 | 74 | 1015.7 |
| 20260504190003 | 0 | 203 | 2.0 | 7.0 | 0.00 | 0.04 | 0.04 | 76 | 1015.9 |
| 20260504185440 | 0 | 285 | 1.0 | 7.0 | 0.00 | 0.04 | 0.04 | 77 | 1015.8 |
| 20260504184918 | 0 | 193 | 1.0 | 7.0 | 0.00 | 0.04 | 0.04 | 76 | 1015.4 |
| 20260504184354 | 0 | 22 | 2.0 | 5.0 | 0.00 | 0.04 | 0.04 | 76 | 1015.6 |
| 20260504183832 | 0 | 190 | 0.0 | 5.0 | 0.00 | 0.04 | 0.04 | 79 | 1015.9 |
| 20260504183309 | 0 | 256 | 0.0 | 5.0 | 0.00 | 0.04 | 0.04 | 79 | 1015.9 |
| 20260504182745 | 0 | 180 | 1.0 | 6.0 | 0.00 | 0.04 | 0.04 | 79 | 1015.4 |
| 20260504182222 | 0 | 172 | 3.0 | 6.0 | 0.00 | 0.04 | 0.04 | 81 | 1015.8 |
| 20260504181659 | 0 | 205 | 2.0 | 5.0 | 0.00 | 0.04 | 0.04 | 71 | 1015.7 |
| 20260504181136 | 0 | 169 | 1.0 | 5.0 | 0.00 | 0.04 | 0.04 | 73 | 1015.6 |
| 20260504180614 | 0 | 40 | 1.0 | 5.0 | 0.00 | 0.04 | 0.04 | 75 | 1015.4 |
| 20260504180050 | 0 | 71 | 0.0 | 5.0 | 0.00 | 0.04 | 0.04 | 81 | 1015.1 |
| 20260504175527 | 0 | 1 | 0.0 | 8.0 | 0.00 | 0.04 | 0.04 | 81 | 1015.1 |
| 20260504175004 | 0 | 140 | 1.0 | 8.0 | 0.00 | 0.04 | 0.04 | 83 | 1015.3 |
| 20260504174442 | 0 | 238 | 0.0 | 8.0 | 0.00 | 0.04 | 0.04 | 83 | 1015.2 |
| 20260504173918 | 0 | 189 | 1.0 | 7.0 | 0.00 | 0.04 | 0.04 | 82 | 1014.8 |
| 20260504173355 | 0 | 54 | 0.0 | 7.0 | 0.00 | 0.04 | 0.04 | 82 | 1014.9 |
| 20260504172832 | 0 | 145 | 0.0 | 8.0 | 0.00 | 0.04 | 0.04 | 81 | 1014.9 |
| 20260504172309 | 0 | 207 | 0.0 | 8.0 | 0.00 | 0.04 | 0.04 | 82 | 1014.8 |
| 20260504171746 | 0 | 315 | 1.0 | 6.0 | 0.00 | 0.04 | 0.04 | 79 | 1014.9 |
| 20260504171223 | 0 | 177 | 0.0 | 6.0 | 0.00 | 0.04 | 0.04 | 82 | 1014.9 |
| 20260504170700 | 0 | 133 | 0.0 | 6.0 | 0.00 | 0.04 | 0.04 | 83 | 1015.1 |
| 20260504170137 | 0 | 148 | 1.0 | 6.0 | 0.00 | 0.04 | 0.04 | 82 | 1014.9 |
| 20260504160224 | 0 | 152 | 0.0 | 7.0 | 0.01 | 0.04 | 0.04 | 82 | 1014.8 |
| 20260504150834 | 0 | 147 | 2.0 | 6.0 | 0.01 | 0.03 | 0.03 | 86 | 1015.0 |
| 20260504150311 | 0 | 0 | 0.0 | 7.0 | 0.01 | 0.03 | 0.03 | 82 | 1014.2 |
| 20260504140922 | 0 | 338 | 0.0 | 8.0 | 0.00 | 0.02 | 0.02 | 86 | 1014.1 |
| 20260504140358 | 0 | 151 | 1.0 | 8.0 | 0.00 | 0.02 | 0.02 | 84 | 1014.2 |
| 20260504130444 | 0 | 133 | 0.0 | 6.0 | 0.00 | 0.02 | 0.02 | 83 | 1013.4 |
| 20260504110618 | 0 | 177 | 0.0 | 8.0 | 0.01 | 0.02 | 0.02 | 85 | 1013.6 |
| 20260504100143 | 0 | 155 | 0.0 | 10.0 | 0.00 | 0.01 | 0.01 | 84 | 1013.3 |
| 20260504081925 | 0 | 165 | 0.0 | 2.0 | 0.00 | 0.00 | 0.00 | 85 | 1013.3 |
| 20260504081402 | 0 | 355 | 0.0 | 2.0 | 0.00 | 0.00 | 0.00 | 84 | 1013.3 |
| 20260504080839 | 0 | 355 | 0.0 | 1.0 | 0.00 | 0.00 | 0.00 | 84 | 1013.3 |
| 20260504080316 | 0 | 0 | 0.0 | 0.0 | 0.00 | 0.00 | 0.00 | 83 | 1013.3 |
| 20260504070403 | 0 | 322 | 0.0 | 4.0 | 0.00 | 0.00 | 0.00 | 82 | 1012.6 |
| 20260504050537 | 0 | 8 | 1.0 | 7.0 | 0.00 | 0.00 | 0.00 | 82 | 1012.6 |
| 20260504050013 | 0 | 295 | 1.0 | 7.0 | 0.00 | 0.00 | 0.00 | 81 | 1012.6 |
| 20260504045450 | 0 | 347 | 0.0 | 6.0 | 0.00 | 0.00 | 0.00 | 80 | 1012.6 |
| 20260504045031 | 0 | 301 | 0.0 | 6.0 | 0.00 | 0.00 | 0.00 | 83 | 1012.5 |
| 20260504044927 | 0 | 301 | 0.0 | 6.0 | 0.00 | 0.00 | 0.00 | 83 | 1012.5 |
| 20260504044404 | 0 | 218 | 1.0 | 6.0 | 0.00 | 0.00 | 0.00 | 82 | 1012.7 |
| 20260504043841 | 0 | 317 | 0.0 | 6.0 | 0.00 | 0.00 | 0.00 | 81 | 1012.6 |
| 20260504043318 | 0 | 61 | 0.0 | 5.0 | 0.00 | 0.00 | 0.00 | 82 | 1012.5 |
| 20260504042755 | 0 | 357 | 1.0 | 4.0 | 0.00 | 0.00 | 0.00 | 83 | 1012.2 |
| 20260504042233 | 0 | 19 | 0.0 | 4.0 | 0.00 | 0.00 | 0.00 | 82 | 1012.2 |
| 20260504041709 | 0 | 333 | 0.0 | 5.0 | 0.00 | 0.00 | 0.00 | 83 | 1012.2 |
| 20260504041147 | 0 | 341 | 1.0 | 5.0 | 0.00 | 0.00 | 0.00 | 81 | 1012.1 |
| 20260504040624 | 0 | 162 | 1.0 | 5.0 | 0.00 | 0.00 | 0.00 | 83 | 1012.2 |
| 20260504035538 | 0 | 39 | 2.0 | 6.0 | 0.00 | 0.00 | 0.00 | 82 | 1011.6 |
| 20260504035015 | 0 | 340 | 1.0 | 6.0 | 0.00 | 0.00 | 0.00 | 81 | 1011.8 |
| 20260504034451 | 0 | 337 | 2.0 | 8.0 | 0.00 | 0.00 | 0.00 | 81 | 1011.5 |
| 20260504033928 | 0 | 30 | 2.0 | 8.0 | 0.00 | 0.00 | 0.00 | 82 | 1011.4 |
| 20260504033405 | 0 | 287 | 2.0 | 8.0 | 0.00 | 0.00 | 0.00 | 83 | 1011.5 |
| 20260504032842 | 0 | 33 | 3.0 | 6.0 | 0.00 | 0.00 | 0.00 | 81 | 1011.3 |
| 20260504032319 | 0 | 351 | 2.0 | 6.0 | 0.00 | 0.00 | 0.00 | 78 | 1011.3 |
| 20260504031756 | 0 | 1 | 3.0 | 6.0 | 0.00 | 0.00 | 0.00 | 81 | 1011.1 |
| 20260504031233 | 0 | 35 | 3.0 | 5.0 | 0.00 | 0.00 | 0.00 | 82 | 1011.2 |
| 20260504030711 | 0 | 15 | 2.0 | 6.0 | 0.00 | 0.00 | 0.00 | 84 | 1011.2 |
| 20260504030147 | 0 | 16 | 1.0 | 6.0 | 0.00 | 0.00 | 0.00 | 81 | 1011.3 |
| 20260504025625 | 0 | 21 | 2.0 | 8.0 | 0.00 | 0.00 | 0.00 | 83 | 1011.2 |
| 20260504025103 | 0 | 42 | 3.0 | 8.0 | 0.00 | 0.00 | 0.00 | 84 | 1011.1 |
| 20260504024538 | 0 | 296 | 3.0 | 8.0 | 0.00 | 0.00 | 0.00 | 84 | 1011.1 |
| 20260504024017 | 0 | 33 | 3.0 | 5.0 | 0.00 | 0.00 | 0.00 | 85 | 1010.9 |
| 20260504023453 | 0 | 351 | 1.0 | 6.0 | 0.00 | 0.00 | 0.00 | 86 | 1011.0 |
| 20260504022929 | 0 | 12 | 2.0 | 6.0 | 0.00 | 0.00 | 0.00 | 86 | 1010.9 |
| 20260504022406 | 0 | 319 | 3.0 | 6.0 | 0.00 | 0.00 | 0.00 | 85 | 1010.9 |
| 20260504021843 | 0 | 277 | 2.0 | 10.0 | 0.00 | 0.00 | 0.00 | 85 | 1010.9 |
| 20260504021320 | 0 | 357 | 1.0 | 10.0 | 0.00 | 0.00 | 0.00 | 83 | 1010.8 |
| 20260504020757 | 0 | 18 | 3.0 | 9.0 | 0.00 | 0.00 | 0.00 | 81 | 1010.8 |
| 20260504020234 | 0 | 15 | 2.0 | 9.0 | 0.00 | 0.00 | 0.00 | 81 | 1011.1 |
| 20260504015711 | 0 | 25 | 3.0 | 7.0 | 0.00 | 0.00 | 0.00 | 81 | 1010.9 |
| 20260504015148 | 0 | 15 | 3.0 | 6.0 | 0.00 | 0.00 | 0.00 | 82 | 1010.9 |
| 20260504014625 | 0 | 350 | 4.0 | 6.0 | 0.00 | 0.00 | 0.00 | 80 | 1010.9 |
| 20260504014102 | 0 | 12 | 3.0 | 8.0 | 0.00 | 0.00 | 0.00 | 75 | 1010.8 |
| 20260504013539 | 0 | 40 | 2.0 | 8.0 | 0.00 | 0.00 | 0.00 | 71 | 1010.4 |
| 20260504013016 | 0 | 14 | 5.0 | 8.0 | 0.00 | 0.00 | 0.00 | 63 | 1010.7 |
| 20260504012453 | 0 | 340 | 5.0 | 8.0 | 0.00 | 0.00 | 0.00 | 61 | 1010.7 |
| 20260504011930 | 0 | 344 | 4.0 | 8.0 | 0.00 | 0.00 | 0.00 | 60 | 1011.1 |
| 20260504011407 | 0 | 14 | 3.0 | 6.0 | 0.00 | 0.00 | 0.00 | 57 | 1011.2 |
| 20260504010844 | 0 | 46 | 2.0 | 7.0 | 0.00 | 0.00 | 0.00 | 56 | 1011.1 |
| 20260504010322 | 0 | 32 | 4.0 | 7.0 | 0.00 | 0.00 | 0.00 | 57 | 1011.0 |
| 20260504005758 | 0 | 29 | 4.0 | 6.0 | 0.00 | 0.00 | 0.00 | 54 | 1010.9 |
| 20260504005236 | 0 | 29 | 3.0 | 5.0 | 0.00 | 0.00 | 0.00 | 51 | 1010.9 |
| 20260504004712 | 0 | 32 | 3.0 | 5.0 | 0.00 | 0.00 | 0.00 | 50 | 1010.8 |
| 20260504004150 | 0 | 18 | 3.0 | 5.0 | 0.00 | 0.00 | 0.00 | 50 | 1010.7 |
| 20260504003626 | 0 | 43 | 4.0 | 5.0 | 0.00 | 0.00 | 0.00 | 50 | 1010.8 |
| 20260504003103 | 0 | 70 | 4.0 | 5.0 | 0.00 | 0.00 | 0.00 | 47 | 1010.8 |
| 20260504002540 | 0 | 37 | 3.0 | 5.0 | 0.00 | 0.00 | 0.00 | 47 | 1010.6 |
| 20260504002017 | 0 | 25 | 3.0 | 5.0 | 0.00 | 0.00 | 0.00 | 46 | 1010.7 |
| 20260504001454 | 0 | 25 | 2.0 | 5.0 | 0.00 | 0.00 | 0.00 | 43 | 1010.7 |
| 20260504000931 | 0 | 36 | 3.0 | 5.0 | 0.00 | 0.00 | 0.00 | 38 | 1010.7 |
| 20260504000409 | 0 | 44 | 2.0 | 5.0 | 0.00 | 0.00 | 0.00 | 34 | 1010.9 |
| 20260503235845 | 0 | 56 | 2.0 | 5.0 | 0.00 | 0.00 | 0.00 | 35 | 1010.9 |
| 20260503235322 | 0 | 35 | 3.0 | 5.0 | 0.00 | 0.00 | 0.00 | 33 | 1010.9 |
| 20260503234759 | 0 | 117 | 2.0 | 8.0 | 0.00 | 0.00 | 0.00 | 32 | 1010.9 |
| 20260503234236 | 0 | 109 | 2.0 | 8.0 | 0.00 | 0.00 | 0.00 | 30 | 1010.8 |
| 20260503233713 | 0 | 102 | 4.0 | 9.0 | 0.00 | 0.00 | 0.00 | 27 | 1011.0 |
| 20260503233150 | 0 | 107 | 5.0 | 9.0 | 0.00 | 0.00 | 0.00 | 28 | 1011.2 |
| 20260503232627 | 0 | 105 | 4.0 | 9.0 | 0.00 | 0.00 | 0.00 | 27 | 1011.2 |
| 20260503232104 | 0 | 105 | 6.0 | 8.0 | 0.00 | 0.00 | 0.00 | 27 | 1011.1 |
| 20260503231541 | 0 | 105 | 4.0 | 11.0 | 0.00 | 0.00 | 0.00 | 28 | 1010.9 |
| 20260503231019 | 0 | 86 | 4.0 | 11.0 | 0.00 | 0.00 | 0.00 | 26 | 1011.1 |
| 20260503230455 | 0 | 86 | 6.0 | 11.0 | 0.00 | 0.00 | 0.00 | 26 | 1011.0 |
| 20260503225932 | 0 | 86 | 5.0 | 9.0 | 0.00 | 0.00 | 0.00 | 24 | 1011.2 |
| 20260503225409 | 0 | 103 | 5.0 | 9.0 | 0.00 | 0.00 | 0.00 | 23 | 1011.4 |
| 20260503224846 | 0 | 100 | 4.0 | 9.0 | 0.00 | 0.00 | 0.00 | 20 | 1011.4 |
| 20260503224414 | 0 | 105 | 4.0 | 8.0 | 0.00 | 0.00 | 0.00 | 18 | 1011.3 |
| 20260503224323 | 0 | 105 | 4.0 | 8.0 | 0.00 | 0.00 | 0.00 | 18 | 1011.3 |
| 20260503223800 | 0 | 82 | 3.0 | 7.0 | 0.00 | 0.00 | 0.00 | 18 | 1011.2 |
| 20260503223237 | 0 | 109 | 2.0 | 7.0 | 0.00 | 0.00 | 0.00 | 14 | 1011.2 |
| 20260503222714 | 0 | 84 | 1.0 | 7.0 | 0.00 | 0.00 | 0.00 | 18 | 1011.3 |
| 20260503222151 | 0 | 110 | 3.0 | 7.0 | 0.00 | 0.00 | 0.00 | 21 | 1011.5 |
| 20260503221628 | 0 | 106 | 1.0 | 7.0 | 0.00 | 0.00 | 0.00 | 22 | 1011.5 |
| 20260503221104 | 0 | 98 | 1.0 | 7.0 | 0.00 | 0.00 | 0.00 | 22 | 1011.8 |
| 20260503220541 | 0 | 57 | 1.0 | 8.0 | 0.00 | 0.00 | 0.00 | 22 | 1011.9 |
| 20260503220018 | 0 | 98 | 4.0 | 8.0 | 0.00 | 0.00 | 0.00 | 22 | 1011.8 |
| 20260503215455 | 0 | 103 | 4.0 | 8.0 | 0.00 | 0.00 | 0.00 | 20 | 1012.1 |
| 20260503214933 | 0 | 103 | 4.0 | 8.0 | 0.00 | 0.00 | 0.00 | 23 | 1012.1 |
| 20260503214409 | 0 | 103 | 2.0 | 8.0 | 0.00 | 0.00 | 0.00 | 23 | 1012.0 |
| 20260503213847 | 0 | 100 | 5.0 | 7.0 | 0.00 | 0.00 | 0.00 | 22 | 1012.2 |
| 20260503213323 | 0 | 127 | 3.0 | 8.0 | 0.00 | 0.00 | 0.00 | 24 | 1012.2 |
| 20260503212801 | 0 | 109 | 5.0 | 8.0 | 0.00 | 0.00 | 0.00 | 23 | 1012.2 |
| 20260503212237 | 0 | 100 | 5.0 | 7.0 | 0.00 | 0.00 | 0.00 | 23 | 1012.3 |
| 20260503211714 | 0 | 105 | 4.0 | 7.0 | 0.00 | 0.00 | 0.00 | 23 | 1012.3 |
| 20260503211151 | 0 | 128 | 3.0 | 7.0 | 0.00 | 0.00 | 0.00 | 24 | 1012.4 |
| 20260503210628 | 0 | 102 | 2.0 | 7.0 | 0.00 | 0.00 | 0.00 | 24 | 1012.5 |
| 20260503210105 | 0 | 123 | 2.0 | 7.0 | 0.00 | 0.00 | 0.00 | 24 | 1012.4 |
| 20260503205543 | 0 | 103 | 3.0 | 7.0 | 0.00 | 0.00 | 0.00 | 25 | 1012.3 |
| 20260503205019 | 0 | 119 | 3.0 | 7.0 | 0.00 | 0.00 | 0.00 | 27 | 1012.5 |
| 20260503204456 | 0 | 114 | 2.0 | 8.0 | 0.00 | 0.00 | 0.00 | 28 | 1012.3 |